FW0381 Weather Reports


Display with metric or nautical units.
time (UTC)temp
F
wind
direction
speed
MPH
gust
MPH
rain 1hr
in
rain 24hr
in
rain mn
in
humidity
%
barometer
mb
20260507120038 47 223 0.0 0.0 0.00 0.00 0.00 92 1016.6
20260507114538 47 223 0.0 0.0 0.00 0.00 0.00 92 1016.6
20260507113035 47 223 0.0 0.0 0.00 0.00 0.00 92 1016.7
20260507111533 48 223 0.0 0.0 0.00 0.00 0.00 91 1016.6
20260507110045 48 223 0.0 1.0 0.00 0.00 0.00 92 1016.8
20260507104530 48 223 0.0 0.0 0.00 0.00 0.00 91 1016.7
20260507103030 48 223 0.0 0.0 0.00 0.00 0.00 92 1016.9
20260507101525 48 223 0.0 0.0 0.00 0.00 0.00 91 1017.1
20260507100023 49 223 0.0 0.0 0.00 0.00 0.00 91 1017.1
20260507094522 49 223 0.0 0.0 0.00 0.00 0.00 91 1017.2
20260507093020 49 223 0.0 0.0 0.00 0.00 0.00 90 1017.4
20260507091519 49 223 0.0 0.0 0.00 0.00 0.00 90 1017.4
20260507090024 50 223 0.0 0.0 0.00 0.00 0.00 90 1017.5
20260507084530 50 223 0.0 0.0 0.00 0.00 0.00 90 1017.6
20260507083014 50 223 0.0 0.0 0.00 0.00 0.00 89 1017.6
20260507081514 51 223 0.0 0.0 0.00 0.00 0.00 89 1017.9
20260507080009 51 223 0.0 0.0 0.00 0.00 0.00 88 1018.1
20260507074523 51 223 0.0 0.0 0.00 0.00 0.00 88 1018.0
20260507073007 52 223 0.0 0.0 0.00 0.00 0.00 87 1018.1
20260507071502 52 223 0.0 0.0 0.00 0.00 0.00 87 1018.3
20260507070108 52 223 0.0 0.0 0.00 0.00 0.00 86 1018.3
20260507064601 53 223 0.0 0.0 0.00 0.00 0.00 86 1018.3
20260507063100 53 223 0.0 0.0 0.00 0.00 0.00 85 1018.2
20260507061559 53 223 0.0 0.0 0.00 0.00 0.00 85 1018.3
20260507060110 54 223 0.0 0.0 0.00 0.00 0.00 84 1018.2
20260507054600 54 223 0.0 0.0 0.00 0.00 0.00 82 1018.2
20260507053057 54 223 0.0 0.0 0.00 0.00 0.00 82 1018.3
20260507051557 55 223 0.0 0.0 0.00 0.00 0.00 81 1018.3
20260507050059 55 223 0.0 0.0 0.00 0.00 0.00 80 1018.2
20260507044557 55 223 0.0 0.0 0.00 0.00 0.00 78 1018.2
20260507043059 57 223 0.0 0.0 0.00 0.00 0.00 77 1018.2
20260507041554 57 223 0.0 0.0 0.00 0.00 0.00 75 1018.2
20260507040054 58 223 0.0 0.0 0.00 0.00 0.00 73 1018.1
20260507034559 59 223 0.0 0.0 0.00 0.00 0.00 71 1017.9
20260507033053 60 223 0.0 0.0 0.00 0.00 0.00 69 1017.9
20260507031552 61 223 0.0 0.0 0.00 0.00 0.00 68 1017.8
20260507030052 62 223 0.0 0.0 0.00 0.00 0.00 66 1017.8
20260507024558 63 223 0.0 0.0 0.00 0.00 0.00 65 1017.5
20260507023053 63 223 0.0 2.0 0.00 0.00 0.00 64 1017.4
20260507021551 64 223 0.0 4.0 0.00 0.00 0.00 63 1017.3
20260507020053 65 224 1.0 5.0 0.00 0.00 0.00 62 1017.1
20260507014551 65 224 1.0 6.0 0.00 0.00 0.00 62 1017.1
20260507013049 66 224 3.0 6.0 0.00 0.00 0.00 62 1017.1
20260507011549 67 224 1.0 6.0 0.00 0.00 0.00 61 1016.9
20260507010105 67 224 3.0 6.0 0.00 0.00 0.00 59 1016.8
20260507004547 69 224 3.0 8.0 0.00 0.00 0.00 56 1016.8
20260507003047 71 223 0.0 4.0 0.00 0.00 0.00 56 1016.8
20260507001554 71 223 3.0 7.0 0.00 0.00 0.00 56 1016.5
20260507000046 71 223 2.0 6.0 0.00 0.00 0.00 55 1016.4
20260506234545 70 223 3.0 6.0 0.00 0.00 0.00 56 1016.3
20260506233057 71 223 3.0 6.0 0.00 0.00 0.00 55 1016.4
20260506231543 72 211 4.0 10.0 0.00 0.00 0.00 55 1016.5
20260506230045 72 227 1.0 6.0 0.00 0.00 0.00 54 1016.5
20260506224541 72 227 1.0 7.0 0.00 0.00 0.00 55 1016.7
20260506223043 72 227 4.0 10.0 0.00 0.00 0.00 54 1016.8
20260506221544 74 200 0.0 10.0 0.00 0.00 0.00 54 1016.8
20260506220045 73 224 0.0 8.0 0.00 0.00 0.00 53 1017.0
20260506214535 75 224 0.0 7.0 0.00 0.00 0.00 51 1017.1
20260506213035 74 223 6.0 9.0 0.00 0.00 0.00 51 1017.3
20260506211535 74 223 4.0 9.0 0.00 0.00 0.00 48 1017.3
20260506210030 76 182 1.0 4.0 0.00 0.00 0.00 48 1017.3
20260506204526 74 284 1.0 10.0 0.00 0.00 0.00 50 1017.5
20260506203027 74 245 1.0 5.0 0.00 0.00 0.00 43 1017.6
20260506201524 73 327 3.0 8.0 0.00 0.00 0.00 46 1017.9
20260506200017 73 269 2.0 7.0 0.00 0.00 0.00 46 1018.1
20260506194514 72 323 3.0 11.0 0.00 0.00 0.00 46 1018.2
20260506193011 71 355 3.0 6.0 0.00 0.00 0.00 47 1018.4
20260506191507 70 213 0.0 6.0 0.00 0.00 0.00 50 1018.7
20260506190006 69 325 2.0 6.0 0.00 0.00 0.00 53 1018.8
20260506184506 68 321 1.0 6.0 0.00 0.00 0.00 51 1019.0
20260506183108 68 323 3.0 9.0 0.00 0.00 0.00 53 1019.1
20260506181559 68 360 3.0 8.0 0.00 0.00 0.00 53 1019.3
20260506180056 66 337 1.0 8.0 0.00 0.00 0.00 55 1019.4
20260506174600 65 320 0.0 10.0 0.00 0.01 0.00 57 1019.3
20260506173106 64 210 0.0 4.0 0.00 0.01 0.00 60 1019.4
20260506171549 64 210 0.0 4.0 0.00 0.01 0.00 62 1019.6
20260506170046 62 209 2.0 6.0 0.00 0.01 0.00 63 1019.6
20260506164540 61 199 0.0 7.0 0.00 0.01 0.00 67 1019.6
20260506163042 60 55 2.0 6.0 0.00 0.01 0.00 68 1019.5
20260506161538 60 221 0.0 4.0 0.00 0.01 0.00 73 1019.4
20260506160030 59 221 0.0 4.0 0.00 0.01 0.00 74 1019.4
20260506154526 58 221 0.0 0.0 0.00 0.01 0.00 77 1019.4
20260506153032 56 221 1.0 4.0 0.00 0.01 0.00 79 1019.4
20260506151518 55 221 0.0 3.0 0.00 0.01 0.00 85 1019.5
20260506150016 55 221 0.0 0.0 0.00 0.01 0.00 91 1019.6
20260506144524 53 221 0.0 0.0 0.00 0.01 0.00 92 1019.5
20260506143009 51 221 0.0 0.0 0.00 0.01 0.00 95 1019.3
20260506141506 49 221 0.0 0.0 0.00 0.01 0.00 95 1019.4
20260506140005 46 221 0.0 0.0 0.00 0.01 0.00 95 1019.3
20260506134503 44 221 0.0 0.0 0.00 0.01 0.00 94 1019.3
20260506133001 43 221 0.0 0.0 0.00 0.01 0.00 94 1019.0
20260506131601 43 221 0.0 0.0 0.00 0.01 0.00 93 1018.9
20260506130139 43 221 0.0 0.0 0.00 0.01 0.00 93 1018.8
20260506124557 43 221 0.0 0.0 0.00 0.04 0.00 93 1018.6
20260506123058 44 221 0.0 0.0 0.00 0.04 0.00 93 1018.6
20260506121559 43 221 0.0 0.0 0.00 0.04 0.00 93 1018.6